User: anonymous   Login
Location: Iola
(37.9240°N, 95.4000°W)
Time: 05:07:39
(UTC-06:00)
Language:

Meteor 2-10 Rocket - Orbit

View from above orbital plane
View from above orbital plane
View from above satellite
View from above satellite

Ground track
Ground track

The orbit data is extracted from the following two-line orbital elements,

1 14453U 83109B   15061.86017660  .00000158  00000-0  59628-4 0  9993
2 14453 081.1648 228.5908 0104453 326.3288 033.1281 14.24571733628304
Epoch (UTC): 02 March 2015 20:38:39
Eccentricity: 0.0104453
inclination: 81.1648°
perigee height: 735 km
apogee height: 885 km
right ascension of ascending node: 228.5908°
argument of perigee: 326.3288°
revolutions per day: 14.24571733
mean anomaly at epoch: 33.1281°
orbit number at epoch: 62830

The dashed part of the orbit path shows where the satellite is in the earth's shadow,  

DLR